This is the latest recevied weather packets stored in our database for station/object IZ1UQG-N2. If no packets are shown the sender has not sent any weather packets the latest 1 day(s).
| Time | Temp. | Humidity | Pressure | Rain* | Wind** | Luminosity | Snow |
|---|---|---|---|---|---|---|---|
| 1777982228 | 12.22° C | 88% | 1012.1 hPa | 0.25 mm | 1.79 m/s, 10° | 132 W/m² | - |
| 1777982210 | 12.22° C | 88% | 1012.1 hPa | 0.25 mm | 1.79 m/s, 10° | 132 W/m² | - |
| 1777982150 | 12.22° C | 88% | 1012.1 hPa | 0 mm | 1.34 m/s, 9° | 130 W/m² | - |
| 1777982090 | 12.22° C | 88% | 1012.1 hPa | 0 mm | 1.79 m/s, 11° | 128 W/m² | - |
| 1777982047 | 12.22° C | 88% | 1012.1 hPa | 0 mm | 1.79 m/s, 11° | 128 W/m² | - |
| 1777982029 | 12.22° C | 88% | 1012.2 hPa | 0 mm | 1.34 m/s, 10° | 127 W/m² | - |
| 1777981969 | 12.22° C | 88% | 1012.1 hPa | 0 mm | 1.79 m/s, 10° | 125 W/m² | - |
| 1777981909 | 12.22° C | 88% | 1012.1 hPa | 0 mm | 1.79 m/s, 10° | 125 W/m² | - |
| 1777981867 | 12.22° C | 88% | 1012.1 hPa | 0 mm | 1.79 m/s, 10° | 125 W/m² | - |
| 1777981849 | 12.22° C | 87% | 1012.1 hPa | 0 mm | 1.79 m/s, 10° | 127 W/m² | - |
| 1777981791 | 12.22° C | 88% | 1012 hPa | 0 mm | 1.79 m/s, 7° | 132 W/m² | - |
| 1777981729 | 12.78° C | 88% | 1012.1 hPa | 0 mm | 1.79 m/s, 5° | 135 W/m² | - |
| 1777981687 | 12.78° C | 88% | 1012.1 hPa | 0 mm | 1.79 m/s, 5° | 135 W/m² | - |
| 1777981669 | 12.78° C | 88% | 1012.1 hPa | 0 mm | 1.79 m/s, 4° | 141 W/m² | - |
| 1777981611 | 12.78° C | 88% | 1012.1 hPa | 0 mm | 1.79 m/s, 2° | 151 W/m² | - |
| 1777981551 | 12.78° C | 88% | 1012.1 hPa | 0 mm | 1.79 m/s, 3° | 155 W/m² | - |
| 1777981508 | 12.78° C | 88% | 1012.1 hPa | 0 mm | 1.79 m/s, 3° | 155 W/m² | - |
| 1777981489 | 12.78° C | 87% | 1012.1 hPa | 0 mm | 1.79 m/s, 3° | 153 W/m² | - |
| 1777981429 | 12.78° C | 87% | 1012.2 hPa | 0 mm | 1.79 m/s, 4° | 148 W/m² | - |
| 1777981371 | 12.78° C | 87% | 1012.1 hPa | 0 mm | 1.34 m/s, 3° | 144 W/m² | - |
| 1777981328 | 12.78° C | 87% | 1012.1 hPa | 0 mm | 1.34 m/s, 3° | 144 W/m² | - |
| 1777981310 | 12.78° C | 88% | 1012.1 hPa | 0 mm | 1.34 m/s, 3° | 141 W/m² | - |
| 1777981250 | 12.78° C | 87% | 1012.2 hPa | 0 mm | 1.79 m/s, 1° | 142 W/m² | - |
| 1777981190 | 12.78° C | 87% | 1012.2 hPa | 0 mm | 1.79 m/s, 359° | 148 W/m² | - |
| 1777981148 | 12.78° C | 87% | 1012.2 hPa | 0 mm | 1.79 m/s, 359° | 148 W/m² | - |
* Rain latest hour (hover to see other rain measurements)
** Current wind speed in m/s (hover to see current wind gust speed)